Regional Weather Roundup
Issued by NWS Sioux Falls, SD

Home | Current Version | Previous Version | Text Only | Print | Product List | Glossary Off
Versions: 1 2 3 4 5 6 7 8 9 10 11 12 13 14 15 16 17 18 19 20 21 22 23 24 25 26 27 28 29 30 31 32 33 34 35 36 37 38 39 40 41 42 43 44 45 46 47 48 49 50

681
ASUS43 KFSD 041402
RWRFSD

WEATHER ROUNDUP FOR SE SOUTH DAKOTA/SW MINNESOTA/NW IOWA
NATIONAL WEATHER SERVICE SIOUX FALLS SD
900 AM CDT WED MAY 04 2016

NOTE: "FAIR" INDICATES FEW OR NO CLOUDS BELOW 12,000 FEET WITH NO
SIGNIFICANT WEATHER AND OR OBSTRUCTIONS TO VISIBILITY.


SDZ038>040-050-052>070-041500-
SOUTHEAST SOUTH DAKOTA

CITY           SKY/WX    TMP DP  RH WIND       PRES   REMARKS
BROOKINGS      SUNNY     49  36  61 N8        30.08R
CHAMBERLAIN    NOT AVBL
HURON          SUNNY     50  36  58 N10       30.12R
MADISON        FAIR      50  37  62 N9        30.09R
MITCHELL       SUNNY     49  38  65 NW10      30.12R
SIOUX FALLS    SUNNY     53  37  54 NE7       30.08R
WINNER         FAIR      51  38  60 W5        30.15R
YANKTON        SUNNY     48  37  66 NW9       30.09R
$$

MNZ071-072-080-081-089-090-097-098-041500-
SOUTHWEST MINNESOTA

CITY           SKY/WX    TMP DP  RH WIND       PRES   REMARKS
FAIRMONT       SUNNY     52  34  50 N10       30.02R
JACKSON        SUNNY     50  34  53 N13       30.04R
LUVERNE        SUNNY     52  32  46 N7        30.07R
MARSHALL       SUNNY     50  36  58 N10       30.07R
MONTEVIDEO     SUNNY     55  39  54 N5        30.08R
PIPESTONE      SUNNY     52  34  50 NE8       30.06R
REDWOOD FALLS  SUNNY     55  33  43 NW8       30.04R
TRACY          SUNNY     52  37  58 N9        30.06R
WINDOM         SUNNY     52  36  54 N13       30.04R
WORTHINGTON    SUNNY     50  36  58 N12       30.05R
$$

IAZ001>003-012>014-020>022-031-032-NEZ013-014-SDZ071-041500-
NORTHWEST IOWA

CITY           SKY/WX    TMP DP  RH WIND       PRES   REMARKS
DENISON        SUNNY     52  37  58 N10G17    30.01R
ESTHERVILLE    SUNNY     51  38  60 N10       30.02R
SIOUX CITY     SUNNY     53  39  59 NW10      30.06R
SPENCER        SUNNY     52  36  54 N12       30.03R
STORM LAKE     SUNNY     50  37  62 N14       30.03R
$$

ABBREVIATIONS USED IN REMARKS
   TC - TEMPERATURE IN CELSIUS
  WCI - WIND CHILL INDEX
   HX - HEAT INDEX
  VSB - VISIBILITY





USA.gov is the U.S. government's official web portal to all federal, state and local government web resources and services.